When you browse on this site, cookies collect data to enhance your experience and personalize the content and advertising you see.
Visit our Privacy Policy to learn more. By continuing to use the site, you agree to this use of cookies and data.
EN

Hourly Weather Chlebowice

Today, 4 August, Tuesday

Time Temperature Precipitation Wind Pressure Humidity
00:00 +17°C° 0 mm 2 mps 746 mmHg 93%
01:00 +18°C° 0 mm 1 mps 746 mmHg 93%
02:00 +18°C° 0.1 mm 1 mps 746 mmHg 93%
03:00 +18°C° 0.1 mm 1 mps 746 mmHg 93%
04:00 +18°C° 0.1 mm 1 mps 745 mmHg 93%
05:00 +18°C° 0.2 mm 1 mps 745 mmHg 93%
06:00 +17°C° 0.2 mm 2 mps 745 mmHg 94%
07:00 +17°C° 0.2 mm 2 mps 745 mmHg 94%
08:00 +17°C° 3.2 mm 3 mps 745 mmHg 95%
09:00 +17°C° 3.2 mm 3 mps 745 mmHg 96%
10:00 +17°C° 3.2 mm 4 mps 745 mmHg 97%
11:00 +17°C° 4.9 mm 4 mps 745 mmHg 97%
12:00 +17°C° 4.9 mm 4 mps 746 mmHg 97%
13:00 +16°C° 4.9 mm 5 mps 746 mmHg 96%
14:00 +16°C° 0.2 mm 5 mps 746 mmHg 96%
15:00 +16°C° 0.2 mm 5 mps 747 mmHg 95%
16:00 +17°C° 0.2 mm 5 mps 747 mmHg 94%
17:00 +16°C° 0 mm 5 mps 748 mmHg 93%
18:00 +17°C° 0 mm 4 mps 748 mmHg 93%
19:00 +17°C° 0 mm 4 mps 749 mmHg 92%
20:00 +17°C° 0 mm 4 mps 749 mmHg 92%
21:00 +16°C° 0 mm 3 mps 750 mmHg 92%
22:00 +16°C° 0 mm 3 mps 751 mmHg 92%
23:00 +16°C° 0 mm 3 mps 751 mmHg 93%

Tomorrow, 5 August, Wednesday

Time Temperature Precipitation Wind Pressure Humidity
00:00 +15°C° 0 mm 2 mps 751 mmHg 93%
01:00 +14°C° 0 mm 2 mps 752 mmHg 94%
02:00 +14°C° 0 mm 2 mps 752 mmHg 94%
03:00 +13°C° 0 mm 2 mps 753 mmHg 93%
04:00 +13°C° 0 mm 2 mps 753 mmHg 93%
05:00 +14°C° 0 mm 2 mps 753 mmHg 89%
06:00 +14°C° 0 mm 2 mps 753 mmHg 84%
07:00 +14°C° 0 mm 3 mps 754 mmHg 80%
08:00 +17°C° 0 mm 3 mps 754 mmHg 72%
09:00 +18°C° 0 mm 3 mps 754 mmHg 65%
10:00 +20°C° 0 mm 3 mps 755 mmHg 57%
11:00 +21°C° 0 mm 2 mps 755 mmHg 54%
12:00 +23°C° 0 mm 2 mps 755 mmHg 50%
13:00 +24°C° 0 mm 2 mps 755 mmHg 46%
14:00 +24°C° 0 mm 2 mps 755 mmHg 47%
15:00 +24°C° 0 mm 2 mps 755 mmHg 47%
16:00 +24°C° 0 mm 3 mps 755 mmHg 48%
17:00 +23°C° 0 mm 2 mps 755 mmHg 53%
18:00 +20°C° 0 mm 2 mps 755 mmHg 59%
19:00 +20°C° 0 mm 1 mps 755 mmHg 64%
20:00 +18°C° 0 mm 2 mps 755 mmHg 66%
21:00 +18°C° 0 mm 2 mps 756 mmHg 67%
22:00 +17°C° 0 mm 2 mps 756 mmHg 69%
23:00 +16°C° 0 mm 2 mps 756 mmHg 72%

Day after tomorrow, 6 August, Thursday

Time Temperature Precipitation Wind Pressure Humidity
00:00 +16°C° 0 mm 2 mps 756 mmHg 75%
01:00 +15°C° 0 mm 2 mps 756 mmHg 78%
02:00 +15°C° 0 mm 2 mps 756 mmHg 80%
03:00 +15°C° 0 mm 2 mps 756 mmHg 83%
04:00 +15°C° 0 mm 2 mps 757 mmHg 85%
05:00 +16°C° 0 mm 2 mps 757 mmHg 82%
06:00 +17°C° 0 mm 3 mps 757 mmHg 80%
07:00 +19°C° 0 mm 3 mps 757 mmHg 77%
08:00 +20°C° 0 mm 3 mps 757 mmHg 73%
09:00 +22°C° 0 mm 4 mps 757 mmHg 68%
10:00 +23°C° 0 mm 4 mps 758 mmHg 64%
11:00 +25°C° 0 mm 4 mps 758 mmHg 63%
12:00 +26°C° 0 mm 4 mps 757 mmHg 61%
13:00 +26°C° 0 mm 4 mps 757 mmHg 60%
14:00 +26°C° 0 mm 4 mps 757 mmHg 61%
15:00 +26°C° 0 mm 4 mps 757 mmHg 61%
16:00 +26°C° 0 mm 4 mps 757 mmHg 62%
17:00 +25°C° 0 mm 4 mps 757 mmHg 66%
18:00 +24°C° 0 mm 3 mps 757 mmHg 71%
19:00 +21°C° 0 mm 3 mps 757 mmHg 76%
20:00 +21°C° 0 mm 3 mps 757 mmHg 76%
21:00 +20°C° 0 mm 3 mps 758 mmHg 77%
22:00 +19°C° 0 mm 3 mps 758 mmHg 78%
23:00 +19°C° 0 mm 3 mps 758 mmHg 79%

7 August, Friday

Time Temperature Precipitation Wind Pressure Humidity
00:00 +19°C° 0 mm 3 mps 758 mmHg 81%
01:00 +18°C° 0 mm 3 mps 758 mmHg 83%
02:00 +18°C° 0 mm 3 mps 758 mmHg 85%
03:00 +18°C° 0 mm 3 mps 758 mmHg 87%
04:00 +18°C° 0 mm 3 mps 758 mmHg 89%
05:00 +19°C° 0 mm 3 mps 758 mmHg 86%
06:00 +20°C° 0 mm 3 mps 758 mmHg 82%
07:00 +21°C° 0 mm 4 mps 758 mmHg 79%
08:00 +22°C° 0 mm 4 mps 758 mmHg 75%
09:00 +25°C° 0 mm 4 mps 758 mmHg 70%
10:00 +27°C° 0 mm 4 mps 759 mmHg 66%
11:00 +27°C° 0 mm 4 mps 758 mmHg 63%
12:00 +28°C° 0 mm 3 mps 758 mmHg 60%
13:00 +29°C° 0 mm 3 mps 758 mmHg 57%
14:00 +29°C° 0 mm 3 mps 757 mmHg 58%
15:00 +29°C° 0 mm 4 mps 757 mmHg 60%
16:00 +28°C° 0 mm 4 mps 757 mmHg 61%
17:00 +27°C° 0 mm 4 mps 757 mmHg 66%
18:00 +26°C° 0 mm 3 mps 757 mmHg 71%
19:00 +25°C° 0 mm 3 mps 757 mmHg 76%
20:00 +24°C° 0 mm 3 mps 757 mmHg 77%
21:00 +22°C° 0 mm 3 mps 757 mmHg 78%
22:00 +21°C° 0 mm 3 mps 757 mmHg 78%
23:00 +20°C° 0 mm 3 mps 757 mmHg 79%

8 August, Saturday

Time Temperature Precipitation Wind Pressure Humidity
00:00 +20°C° 0 mm 3 mps 757 mmHg 80%
01:00 +19°C° 0 mm 3 mps 757 mmHg 81%
02:00 +19°C° 0 mm 3 mps 757 mmHg 82%
03:00 +19°C° 0 mm 3 mps 756 mmHg 83%
04:00 +18°C° 0 mm 2 mps 756 mmHg 85%
05:00 +19°C° 0 mm 3 mps 756 mmHg 82%
06:00 +20°C° 0 mm 3 mps 756 mmHg 79%
07:00 +21°C° 0 mm 3 mps 756 mmHg 76%
08:00 +24°C° 0 mm 3 mps 756 mmHg 70%
09:00 +25°C° 0 mm 3 mps 756 mmHg 64%
10:00 +27°C° 0 mm 4 mps 756 mmHg 59%
11:00 +27°C° 0 mm 4 mps 756 mmHg 56%
12:00 +28°C° 0 mm 3 mps 755 mmHg 52%
13:00 +29°C° 0 mm 3 mps 755 mmHg 49%
14:00 +29°C° 0 mm 3 mps 754 mmHg 49%
15:00 +29°C° 0 mm 3 mps 754 mmHg 50%
16:00 +29°C° 0 mm 3 mps 754 mmHg 50%
17:00 +27°C° 0 mm 3 mps 754 mmHg 56%
18:00 +26°C° 0 mm 2 mps 753 mmHg 63%
19:00 +24°C° 0 mm 2 mps 753 mmHg 69%
20:00 +23°C° 0 mm 2 mps 753 mmHg 71%
21:00 +23°C° 0 mm 2 mps 754 mmHg 74%
22:00 +21°C° 0 mm 2 mps 754 mmHg 76%
23:00 +20°C° 0 mm 2 mps 753 mmHg 78%

9 August, Sunday

Time Temperature Precipitation Wind Pressure Humidity
00:00 +20°C° 0 mm 2 mps 753 mmHg 80%
01:00 +19°C° 0 mm 2 mps 753 mmHg 83%
02:00 +19°C° 0 mm 2 mps 753 mmHg 84%
03:00 +19°C° 0 mm 2 mps 753 mmHg 85%
04:00 +18°C° 0 mm 2 mps 752 mmHg 86%
05:00 +19°C° 0 mm 2 mps 753 mmHg 82%
06:00 +20°C° 0 mm 2 mps 753 mmHg 79%
07:00 +21°C° 0 mm 2 mps 753 mmHg 76%
08:00 +24°C° 0 mm 2 mps 753 mmHg 71%
09:00 +25°C° 0 mm 2 mps 752 mmHg 66%
10:00 +26°C° 0 mm 3 mps 752 mmHg 61%
11:00 +27°C° 0.1 mm 3 mps 752 mmHg 57%
12:00 +28°C° 0.1 mm 3 mps 752 mmHg 54%
13:00 +28°C° 0.1 mm 3 mps 751 mmHg 50%
14:00 +28°C° 0 mm 3 mps 751 mmHg 52%
15:00 +28°C° 0 mm 3 mps 751 mmHg 53%
16:00 +27°C° 0 mm 3 mps 751 mmHg 55%
17:00 +26°C° 0 mm 3 mps 751 mmHg 60%
18:00 +25°C° 0 mm 2 mps 751 mmHg 65%
19:00 +24°C° 0 mm 2 mps 751 mmHg 70%
20:00 +23°C° 0 mm 2 mps 751 mmHg 72%
21:00 +21°C° 0 mm 2 mps 751 mmHg 74%
22:00 +20°C° 0 mm 2 mps 751 mmHg 77%
23:00 +20°C° 0 mm 2 mps 751 mmHg 81%
Show more